Location: Fours
(44.3167°N, 6.7000°E)
Time: 23:11:09
(UTC+00:00)

Cosmos 1607 - Pass Details

Date: 16 October 2021
Orbit: 917 x 985 km, 65.0° (Epoch: 26 November)

Event Time Altitude Azimuth Distance (km) Brightness Sun altitude
Rises 17:39:15 0° 326° (NNW) 3,663 7.5 -10.1°
Reaches altitude 10° 17:41:53 10° 330° (NNW) 2,704 6.7 -10.5°
Maximum altitude 17:48:08 60° 50° (NE) 1,077 4.0 -11.6°
Drops below altitude 10° 17:54:14 10° 131° (SE) 2,643 5.8 -12.7°
Enters shadow 17:55:00 - 132° (SE) 2,921 6.1 -12.9°
